Showing default

ELEKTRO-L 2, 41105

Orbit data source: Space-Track

ELEKTRO-L 2, 41105 is a Commonwealth of Independent States-origin payload satellite in GEO that was launched on Fri, 11 Dec 2015 UTC via a ZENIT-3SLBF launch vehicle from the Tyuratam Missile And Space Complex (TTMTR). Payload-class satellites include a variety of spacecraft equipped with specific instruments for various scientific and technological missions. These include communications satellites like Starlink; space stations such as the ISS; scientific satellites like the Hubble; Earth observation satellites from companies like Planet Labs, Umbra, and HawkEye 360; GPS; miniature CubeSats for education and research; and military/defense satellites.

Not visible in the next 10 days
Identifier
41105, 2015-074A
Orbit
GEO
Country
Flag of CISCIS
Related business
Manufacturer
Lavochkin
Mission
Operational Civil Weather
Bus & Motor
NAVIGATOR, Unknown motor
Mass
1,855 kg wet, 1,591 kg dry
Launch date (UTC)
2015-12-11 (10 years ago)
Launch vehicle
ZENIT-3SLBF
Launch site
Tyuratam Missile And Space Complex (TTMTR)
Object type
Payload
Rocket body
Debris
Shape & HBR
Box + 1 Pan + 1 Ant, 5.0 m
Radar Cross Section
11.105 m², Large (>1 m²)

Expand to show TLE details & history
Last TLE update: 1 day ago

TLE from 1 day ago
0 ELEKTRO-L 2
1 41105U 15074A   25306.17841341 -.00000100  00000-0  00000-0 0  9995
2 41105   6.1189  73.3072 0003359 185.7069 192.4853  1.00271461 36234
Epoch: 2025-11-02T04:16Z
TLE epoch observation values (Epoch: 2025-11-02T04:16:54.918Z)
Latitude
1.90081°
Longitude
-14.57019°
Altitude
35,799.782 km
Speed
3.074 km/s
True Right ascension
06h 05m 25s
True Declination
1° 53' 56"
Sunlit
Object was in daylight at epoch
Visualization orbit readout
Latitude
Unknown
Longitude
Unknown
Altitude
Unknown
Speed
Unknown
Apparent Right ascension
Unknown
Apparent Declination
Unknown
Sunlit
N/A
Visualization observer readout
Local Sidereal Time
03:30:35
Azimuth
Unknown
Elevation
Unknown
Doppler factor
Unknown
Orbital elements
Apogee altitude
35,801.902 km
Perigee altitude
35,773.575 km
Semi-major axis
42,165.875 km
Eccentricity
0.00034
Inclination
6.1189°
RAAN
73.3072°
Arg. of periapsis
185.7069°
True anomaly
192.47698°
Mean anomaly
192.4853°
Eccentric anomaly
192.48114°
Mean motion
0.25067 °/min
Orbital period
1,436.15 mins
BSTAR
0
Loading maneuver chart data...
Computing Atmospheric mass density...
Loading historical data...
Loading historical data...
Loading historical data...
Loading historical data...
Loading historical data...
Loading historical data...
Loading historical data...

Documentation

Showing up to 5 results
|